Wetterstation Vordersexau
Wetterdaten: Jahr 2011
Datum Temp. A. Feuchte A. Luftdruck Regen Wind Richtung Taupunkt Windchill Windben
01.01.2011 0,4 C 88 % 1020,0 hPa 0,0 l/m 0,0 km/h N -1,3 C 0,4 C 0,0 km/h
02.01.2011 0,4 C 87 % 1020,4 hPa 1,4 l/m 0,0 km/h S-SO -1,5 C 0,4 C 0,0 km/h
03.01.2011 -1,5 C 86 % 1021,7 hPa 0,4 l/m 0,2 km/h NO -3,6 C -1,5 C 0,1 km/h
04.01.2011 -2,7 C 86 % 1017,4 hPa 0,0 l/m 1,2 km/h SO -4,7 C -3,1 C 0,7 km/h
05.01.2011 -0,6 C 81 % 1011,1 hPa 0,4 l/m 0,4 km/h W-SW -3,5 C -0,6 C 0,2 km/h
06.01.2011 6,0 C 84 % 1004,0 hPa 0,4 l/m 4,2 km/h NO 3,6 C 4,9 C 2,3 km/h
07.01.2011 10,2 C 86 % 1008,6 hPa 3,9 l/m 4,1 km/h SO 8,0 C 9,2 C 2,3 km/h
08.01.2011 10,7 C 84 % 1009,7 hPa 1,8 l/m 3,9 km/h NO 8,0 C 9,6 C 2,2 km/h
09.01.2011 7,7 C 85 % 1011,5 hPa 7,1 l/m 7,9 km/h NO 5,3 C 5,4 C 4,4 km/h
10.01.2011 3,4 C 88 % 1018,4 hPa 0,4 l/m 0,0 km/h W-NW 1,7 C 3,4 C 0,0 km/h
11.01.2011 4,9 C 86 % 1010,7 hPa 1,1 l/m 3,3 km/h W-SW 2,7 C 4,1 C 1,8 km/h
12.01.2011 6,7 C 83 % 1018,5 hPa 1,1 l/m 14,7 km/h SW 4,0 C 1,5 C 8,1 km/h
13.01.2011 10,8 C 87 % 1017,4 hPa 0,7 l/m 25,1 km/h W-SW 8,6 C 3,4 C 14,0 km/h
14.01.2011 10,5 C 83 % 1018,1 hPa 0,0 l/m 10,7 km/h W-SW 7,6 C 7,6 C 5,9 km/h
15.01.2011 8,6 C 82 % 1024,3 hPa 1,1 l/m 10,6 km/h W-SW 5,6 C 5,4 C 5,9 km/h
16.01.2011 5,1 C 82 % 1025,1 hPa 0,0 l/m 0,3 km/h O-NO 2,0 C 5,1 C 0,2 km/h
17.01.2011 5,0 C 81 % 1024,0 hPa 0,4 l/m 3,5 km/h O-NO 2,0 C 4,2 C 1,9 km/h
18.01.2011 7,4 C 84 % 1023,8 hPa 0,0 l/m 6,3 km/h SO 4,8 C 5,5 C 3,5 km/h
19.01.2011 4,0 C 83 % 1026,4 hPa 1,1 l/m 2,1 km/h SO 1,4 C 3,4 C 1,2 km/h
20.01.2011 0,8 C 87 % 1024,6 hPa 2,1 l/m 0,2 km/h NO -1,1 C 0,8 C 0,1 km/h
21.01.2011 -0,3 C 80 % 1028,0 hPa 0,4 l/m 1,2 km/h N-NO -3,5 C -0,5 C 0,7 km/h
22.01.2011 -1,9 C 71 % 1026,4 hPa 0,0 l/m 0,8 km/h NO -6,6 C -2,0 C 0,4 km/h
23.01.2011 -3,0 C 77 % 1024,0 hPa 0,0 l/m 0,1 km/h O-NO -6,7 C -3,0 C 0,0 km/h
24.01.2011 -0,7 C 82 % 1022,8 hPa 0,0 l/m 0,0 km/h SO -3,4 C -0,7 C 0,0 km/h
25.01.2011 1,8 C 84 % 1015,5 hPa 1,8 l/m 13,3 km/h W-SW -0,6 C -3,4 C 7,4 km/h
26.01.2011 2,2 C 87 % 1007,5 hPa 4,6 l/m 9,2 km/h SO 0,3 C -1,3 C 5,1 km/h
27.01.2011 1,6 C 87 % 1011,1 hPa 0,4 l/m 0,1 km/h O-SO -0,4 C 1,6 C 0,0 km/h
28.01.2011 1,8 C 76 % 1014,1 hPa 0,0 l/m 3,3 km/h SO -2,1 C 0,7 C 1,9 km/h
29.01.2011 -0,9 C 79 % 1014,0 hPa 0,0 l/m 1,1 km/h SO -4,1 C -1,1 C 0,6 km/h
30.01.2011 -3,0 C 85 % 1014,3 hPa 0,0 l/m 0,1 km/h SO -5,3 C -3,0 C 0,1 km/h
31.01.2011 -2,3 C 84 % 1020,1 hPa 0,0 l/m 0,9 km/h W-NW -4,7 C -2,5 C 0,5 km/h
01.02.2011 -2,0 C 84 % 1025,2 hPa 0,0 l/m 0,2 km/h W-NW -4,3 C -2,0 C 0,1 km/h
02.02.2011 -0,5 C 79 % 1029,2 hPa 0,0 l/m 1,0 km/h W-NW -3,7 C -0,5 C 0,6 km/h
03.02.2011 0,1 C 87 % 1028,6 hPa 0,4 l/m 1,3 km/h S-SO -1,8 C -0,2 C 0,7 km/h
04.02.2011 6,3 C 80 % 1028,4 hPa 0,0 l/m 20,6 km/h W-SW 3,0 C -0,5 C 11,5 km/h
05.02.2011 8,8 C 74 % 1028,7 hPa 0,0 l/m 24,5 km/h W-SW 4,3 C 1,0 C 13,6 km/h
06.02.2011 6,3 C 76 % 1027,2 hPa 0,0 l/m 2,2 km/h SO 2,1 C 5,9 C 1,2 km/h
07.02.2011 4,5 C 70 % 1021,9 hPa 0,0 l/m 0,5 km/h O-NO -1,2 C 4,5 C 0,3 km/h
08.02.2011 4,9 C 74 % 1021,2 hPa 0,0 l/m 1,1 km/h O-SO 0,4 C 4,9 C 0,6 km/h
09.02.2011 2,1 C 87 % 1021,1 hPa 0,0 l/m 0,2 km/h O 0,2 C 2,1 C 0,1 km/h
10.02.2011 6,2 C 73 % 1019,4 hPa 0,0 l/m 1,9 km/h SO 1,3 C 5,8 C 1,1 km/h
11.02.2011 9,0 C 76 % 1015,6 hPa 0,4 l/m 4,6 km/h O-SO 4,6 C 8,0 C 2,5 km/h
12.02.2011 7,3 C 76 % 1014,0 hPa 0,0 l/m 0,5 km/h SO 2,9 C 7,3 C 0,3 km/h
13.02.2011 7,7 C 80 % 1009,8 hPa 1,1 l/m 0,3 km/h SO 4,3 C 7,7 C 0,2 km/h
14.02.2011 7,5 C 78 % 1005,0 hPa 0,0 l/m 0,8 km/h SO 3,7 C 7,4 C 0,5 km/h
15.02.2011 6,3 C 84 % 1000,0 hPa 1,4 l/m 5,6 km/h S-SO 3,9 C 4,7 C 3,1 km/h
16.02.2011 5,0 C 82 % 996,9 hPa 0,0 l/m 0,9 km/h SO 2,1 C 4,9 C 0,5 km/h
17.02.2011 4,0 C 85 % 999,6 hPa 0,0 l/m 0,2 km/h O-NO 1,6 C 4,0 C 0,1 km/h
18.02.2011 3,9 C 86 % 1010,5 hPa 0,0 l/m 0,0 km/h W 1,8 C 3,9 C 0,0 km/h
19.02.2011 4,8 C 80 % 1012,8 hPa 0,0 l/m 0,8 km/h NW 1,6 C 4,7 C 0,4 km/h
20.02.2011 2,5 C 88 % 1011,0 hPa 4,6 l/m 0,5 km/h W 0,7 C 2,5 C 0,3 km/h
21.02.2011 0,3 C 88 % 1012,6 hPa 0,7 l/m 0,0 km/h W -1,5 C 0,3 C 0,0 km/h
22.02.2011 -0,9 C 89 % 1013,2 hPa 0,0 l/m 0,0 km/h W -2,5 C -0,9 C 0,0 km/h
23.02.2011 -0,5 C 82 % 1022,2 hPa 1,4 l/m 0,2 km/h W -3,4 C -0,5 C 0,1 km/h
24.02.2011 2,3 C 86 % 1023,5 hPa 1,1 l/m 0,2 km/h SO 0,2 C 2,3 C 0,1 km/h
25.02.2011 6,0 C 86 % 1025,8 hPa 0,4 l/m 0,2 km/h SO 3,8 C 6,0 C 0,1 km/h
26.02.2011 6,1 C 84 % 1016,8 hPa 1,8 l/m 3,9 km/h SO 3,6 C 5,0 C 2,2 km/h
27.02.2011 5,1 C 88 % 1013,8 hPa 5,3 l/m 0,5 km/h O-SO 3,3 C 5,1 C 0,3 km/h
28.02.2011 4,7 C 81 % 1019,1 hPa 0,0 l/m 2,9 km/h NO 1,7 C 4,1 C 1,6 km/h
01.03.2011 7,4 C 68 % 1022,4 hPa 0,0 l/m 2,6 km/h N-NO 1,4 C 6,9 C 1,4 km/h
02.03.2011 6,4 C 49 % 1020,5 hPa 0,0 l/m 3,3 km/h N-NO -4,5 C 5,8 C 1,9 km/h
03.03.2011 3,8 C 60 % 1022,3 hPa 0,0 l/m 1,0 km/h O-NO -3,9 C 3,7 C 0,6 km/h
04.03.2011 3,1 C 73 % 1024,4 hPa 0,0 l/m 0,9 km/h SO -1,7 C 2,9 C 0,5 km/h
05.03.2011 4,3 C 74 % 1020,8 hPa 0,0 l/m 1,5 km/h N-NO -0,5 C 4,2 C 0,8 km/h
06.03.2011 1,7 C 75 % 1022,7 hPa 0,0 l/m 1,8 km/h O -2,6 C 1,4 C 1,0 km/h
07.03.2011 4,2 C 55 % 1025,0 hPa 0,0 l/m 4,6 km/h SO -6,1 C 3,1 C 2,6 km/h
08.03.2011 6,3 C 58 % 1023,9 hPa 0,0 l/m 3,8 km/h O-SO -1,7 C 5,4 C 2,1 km/h
09.03.2011 8,5 C 62 % 1019,3 hPa 0,0 l/m 10,3 km/h W-SW 1,1 C 5,8 C 5,7 km/h
10.03.2011 9,4 C 64 % 1018,4 hPa 0,0 l/m 15,7 km/h W 2,8 C 5,1 C 8,7 km/h
11.03.2011 9,5 C 61 % 1017,7 hPa 0,0 l/m 9,7 km/h W-SW 1,9 C 6,6 C 5,4 km/h
12.03.2011 8,2 C 68 % 1008,6 hPa 0,0 l/m 0,3 km/h O-SO 2,1 C 8,2 C 0,2 km/h
13.03.2011 8,7 C 84 % 1004,7 hPa 0,4 l/m 0,3 km/h W-SW 6,1 C 8,7 C 0,2 km/h
14.03.2011 12,0 C 72 % 1012,0 hPa 0,4 l/m 1,3 km/h SO 6,6 C 11,8 C 0,7 km/h
15.03.2011 11,0 C 70 % 1009,4 hPa 0,0 l/m 2,2 km/h NO 5,1 C 10,7 C 1,2 km/h
16.03.2011 8,5 C 80 % 1001,7 hPa 2,1 l/m 1,6 km/h O-SO 5,2 C 8,4 C 0,9 km/h
17.03.2011 7,2 C 86 % 1005,9 hPa 7,1 l/m 0,5 km/h W 5,1 C 7,2 C 0,3 km/h
18.03.2011 7,2 C 84 % 1020,6 hPa 0,0 l/m 7,9 km/h W-SW 4,6 C 4,7 C 4,4 km/h
19.03.2011 6,0 C 82 % 1025,0 hPa 7,1 l/m 0,5 km/h O-NO 3,0 C 6,0 C 0,3 km/h
20.03.2011 6,6 C 65 % 1029,0 hPa 0,4 l/m 1,3 km/h SO -0,7 C 6,5 C 0,8 km/h
21.03.2011 7,6 C 57 % 1029,8 hPa 0,0 l/m 1,2 km/h NO -1,7 C 7,6 C 0,6 km/h
22.03.2011 8,0 C 59 % 1031,6 hPa 0,0 l/m 1,2 km/h O-NO -0,6 C 7,9 C 0,7 km/h
23.03.2011 10,5 C 60 % 1032,8 hPa 0,0 l/m 1,6 km/h NO 1,8 C 10,3 C 0,9 km/h
24.03.2011 11,6 C 66 % 1029,6 hPa 0,0 l/m 2,7 km/h NO 4,5 C 11,2 C 1,5 km/h
25.03.2011 12,6 C 60 % 1018,6 hPa 0,0 l/m 4,7 km/h O-NO 3,6 C 11,9 C 2,6 km/h
26.03.2011 10,1 C 66 % 1013,2 hPa 0,0 l/m 3,0 km/h O-NO 3,5 C 9,5 C 1,7 km/h
27.03.2011 10,2 C 81 % 1010,9 hPa 3,2 l/m 0,2 km/h SO 7,0 C 10,2 C 0,1 km/h
28.03.2011 12,6 C 74 % 1011,0 hPa 5,3 l/m 1,1 km/h SO 7,6 C 12,5 C 0,6 km/h
29.03.2011 12,0 C 67 % 1013,3 hPa 0,0 l/m 1,4 km/h NO 5,0 C 11,9 C 0,8 km/h
30.03.2011 10,6 C 75 % 1015,2 hPa 0,7 l/m 5,9 km/h W-SW 6,3 C 9,4 C 3,3 km/h
31.03.2011 12,3 C 79 % 1019,4 hPa 2,5 l/m 17,5 km/h S-SW 8,7 C 7,5 C 9,7 km/h
01.04.2011 16,7 C 71 % 1022,8 hPa 0,7 l/m 9,4 km/h SW 10,8 C 14,5 C 5,2 km/h
02.04.2011 17,0 C 65 % 1015,7 hPa 0,0 l/m 0,9 km/h NO 9,0 C 17,0 C 0,5 km/h
03.04.2011 17,0 C 67 % 1011,3 hPa 2,1 l/m 5,2 km/h SO 10,0 C 16,5 C 2,9 km/h
04.04.2011 12,4 C 75 % 1020,0 hPa 16,0 l/m 0,4 km/h W-NW 7,7 C 12,4 C 0,2 km/h
05.04.2011 13,1 C 68 % 1025,5 hPa 0,0 l/m 0,9 km/h O-NO 6,7 C 13,1 C 0,5 km/h
06.04.2011 16,5 C 66 % 1026,9 hPa 0,0 l/m 2,9 km/h SO 9,4 C 16,1 C 1,6 km/h
07.04.2011 18,5 C 64 % 1023,6 hPa 0,0 l/m 3,1 km/h O-NO 10,4 C 18,3 C 1,7 km/h
08.04.2011 15,6 C 64 % 1021,8 hPa 0,0 l/m 1,2 km/h SO 7,8 C 15,5 C 0,7 km/h
09.04.2011 15,6 C 62 % 1020,0 hPa 0,0 l/m 1,8 km/h O-NO 7,1 C 15,5 C 1,0 km/h
10.04.2011 14,5 C 61 % 1019,6 hPa 0,0 l/m 2,3 km/h NO 5,6 C 14,3 C 1,3 km/h
11.04.2011 15,9 C 58 % 1019,3 hPa 0,0 l/m 0,7 km/h W-NW 6,1 C 15,8 C 0,4 km/h
12.04.2011 10,6 C 71 % 1021,2 hPa 0,0 l/m 2,9 km/h N-NO 5,3 C 10,0 C 1,6 km/h
13.04.2011 8,3 C 64 % 1022,1 hPa 0,0 l/m 1,6 km/h SO 1,0 C 8,1 C 0,9 km/h
14.04.2011 9,9 C 58 % 1015,4 hPa 0,0 l/m 0,4 km/h SO 1,3 C 9,9 C 0,2 km/h
15.04.2011 9,7 C 57 % 1015,7 hPa 0,0 l/m 2,3 km/h NO 0,3 C 9,2 C 1,3 km/h
16.04.2011 11,3 C 57 % 1018,0 hPa 0,0 l/m 3,0 km/h N-NO 1,5 C 10,8 C 1,7 km/h
17.04.2011 12,6 C 54 % 1019,3 hPa 0,0 l/m 1,9 km/h SO 1,9 C 12,4 C 1,1 km/h
18.04.2011 14,7 C 52 % 1017,2 hPa 0,0 l/m 0,6 km/h N-NO 3,3 C 14,7 C 0,3 km/h
19.04.2011 15,6 C 55 % 1013,3 hPa 0,0 l/m 1,9 km/h O-NO 5,0 C 15,5 C 1,1 km/h
20.04.2011 16,2 C 55 % 1013,2 hPa 0,0 l/m 1,3 km/h NO 6,0 C 16,2 C 0,7 km/h
21.04.2011 17,6 C 57 % 1012,7 hPa 0,0 l/m 1,4 km/h W 7,8 C 17,5 C 0,8 km/h
22.04.2011 18,0 C 57 % 1007,9 hPa 0,0 l/m 2,0 km/h NO 7,9 C 17,9 C 1,1 km/h
23.04.2011 17,6 C 57 % 1008,1 hPa 0,0 l/m 1,8 km/h O-NO 7,9 C 17,6 C 1,0 km/h
24.04.2011 16,2 C 70 % 1013,4 hPa 0,0 l/m 2,9 km/h SO 10,2 C 15,9 C 1,6 km/h
25.04.2011 17,9 C 57 % 1014,0 hPa 0,0 l/m 3,1 km/h N-NO 7,3 C 17,7 C 1,7 km/h
26.04.2011 15,8 C 53 % 1014,4 hPa 0,0 l/m 1,6 km/h N-NO 5,2 C 15,6 C 0,9 km/h
27.04.2011 13,8 C 64 % 1012,9 hPa 0,0 l/m 1,9 km/h N-NO 6,6 C 13,6 C 1,0 km/h
28.04.2011 13,3 C 68 % 1010,0 hPa 0,0 l/m 1,1 km/h SO 6,9 C 13,2 C 0,6 km/h
29.04.2011 12,6 C 79 % 1006,2 hPa 2,5 l/m 1,5 km/h NO 8,8 C 12,5 C 0,8 km/h
30.04.2011 13,3 C 78 % 1003,8 hPa 3,6 l/m 1,9 km/h SO 9,4 C 13,0 C 1,0 km/h
01.05.2011 15,4 C 70 % 1004,5 hPa 0,4 l/m 0,8 km/h SO 9,4 C 15,3 C 0,5 km/h
02.05.2011 14,8 C 69 % 1003,5 hPa 0,0 l/m 1,8 km/h O-NO 8,6 C 14,6 C 1,0 km/h
03.05.2011 13,4 C 65 % 1008,0 hPa 4,3 l/m 2,1 km/h N-NO 6,1 C 13,2 C 1,2 km/h
04.05.2011 11,8 C 58 % 1016,5 hPa 0,0 l/m 1,5 km/h W 2,6 C 11,7 C 0,8 km/h
05.05.2011 14,3 C 51 % 1019,5 hPa 0,0 l/m 3,4 km/h NW 3,0 C 14,0 C 1,9 km/h
06.05.2011 18,1 C 51 % 1018,4 hPa 0,0 l/m 1,6 km/h NO 6,1 C 18,0 C 0,9 km/h
07.05.2011 20,6 C 51 % 1016,7 hPa 0,0 l/m 3,1 km/h SO 8,4 C 20,5 C 1,7 km/h
08.05.2011 21,4 C 46 % 1016,4 hPa 0,0 l/m 1,1 km/h O-NO 8,1 C 21,4 C 0,6 km/h
09.05.2011 20,8 C 47 % 1019,0 hPa 0,0 l/m 1,7 km/h SO 7,5 C 20,6 C 1,0 km/h
10.05.2011 20,8 C 50 % 1022,1 hPa 0,0 l/m 0,9 km/h NO 8,8 C 20,7 C 0,5 km/h
11.05.2011 19,5 C 65 % 1020,1 hPa 0,7 l/m 2,1 km/h O-SO 12,1 C 19,5 C 1,2 km/h
12.05.2011 17,3 C 74 % 1016,5 hPa 3,9 l/m 1,7 km/h SO 12,3 C 17,2 C 0,9 km/h
13.05.2011 17,2 C 61 % 1018,3 hPa 0,0 l/m 3,2 km/h N-NO 8,6 C 17,0 C 1,8 km/h
14.05.2011 14,4 C 71 % 1014,8 hPa 2,1 l/m 0,5 km/h SO 8,5 C 14,4 C 0,3 km/h
15.05.2011 12,8 C 70 % 1020,6 hPa 1,1 l/m 1,8 km/h NO 7,0 C 12,5 C 1,0 km/h
16.05.2011 13,0 C 69 % 1024,2 hPa 0,7 l/m 4,7 km/h NO 7,1 C 12,1 C 2,6 km/h
17.05.2011 16,9 C 64 % 1021,0 hPa 0,0 l/m 0,9 km/h SO 9,4 C 16,9 C 0,5 km/h
18.05.2011 20,2 C 56 % 1015,9 hPa 0,0 l/m 1,6 km/h S-SO 9,5 C 20,1 C 0,9 km/h
19.05.2011 18,1 C 67 % 1014,8 hPa 3,9 l/m 1,2 km/h SO 10,7 C 18,0 C 0,6 km/h
20.05.2011 19,5 C 65 % 1016,9 hPa 0,0 l/m 1,2 km/h SO 11,9 C 19,5 C 0,7 km/h
21.05.2011 21,0 C 61 % 1018,0 hPa 0,0 l/m 3,8 km/h SO 12,0 C 20,9 C 2,1 km/h
22.05.2011 21,0 C 62 % 1016,8 hPa 0,0 l/m 2,3 km/h W 12,7 C 20,9 C 1,3 km/h
23.05.2011 21,6 C 51 % 1022,5 hPa 0,0 l/m 2,8 km/h NO 9,8 C 21,5 C 1,6 km/h
24.05.2011 20,3 C 54 % 1021,5 hPa 0,0 l/m 2,8 km/h NO 9,5 C 20,1 C 1,6 km/h
25.05.2011 19,4 C 49 % 1021,7 hPa 0,0 l/m 3,8 km/h N-NO 6,8 C 19,2 C 2,1 km/h
26.05.2011 19,7 C 59 % 1013,0 hPa 0,0 l/m 8,8 km/h O-NO 10,4 C 18,8 C 4,9 km/h
27.05.2011 14,4 C 69 % 1015,2 hPa 1,4 l/m 0,8 km/h W-NW 8,4 C 14,3 C 0,4 km/h
28.05.2011 16,3 C 59 % 1016,5 hPa 0,4 l/m 3,0 km/h O-SO 6,9 C 16,0 C 1,7 km/h
29.05.2011 19,4 C 53 % 1015,7 hPa 0,0 l/m 2,5 km/h O-NO 7,7 C 19,2 C 1,4 km/h
30.05.2011 23,4 C 49 % 1012,0 hPa 0,0 l/m 1,1 km/h NO 10,2 C 23,4 C 0,6 km/h
31.05.2011 17,6 C 65 % 1013,7 hPa 8,2 l/m 8,0 km/h W-SW 10,4 C 16,6 C 4,4 km/h
01.06.2011 11,2 C 83 % 1022,1 hPa 3,9 l/m 3,4 km/h N-NO 8,4 C 10,6 C 1,9 km/h
02.06.2011 18,5 C 63 % 1023,2 hPa 0,0 l/m 3,6 km/h NO 10,8 C 18,1 C 2,0 km/h
03.06.2011 22,2 C 57 % 1019,8 hPa 0,0 l/m 1,2 km/h N-NO 12,5 C 22,2 C 0,7 km/h
04.06.2011 21,5 C 70 % 1012,7 hPa 0,0 l/m 1,5 km/h SO 15,4 C 21,4 C 0,8 km/h
05.06.2011 22,1 C 64 % 1007,3 hPa 0,0 l/m 3,0 km/h SO 14,1 C 21,8 C 1,7 km/h
06.06.2011 19,1 C 70 % 1005,0 hPa 1,8 l/m 4,9 km/h SO 13,0 C 18,6 C 2,7 km/h
07.06.2011 20,2 C 68 % 1003,3 hPa 1,1 l/m 0,8 km/h S-SO 13,3 C 20,1 C 0,4 km/h
08.06.2011 14,6 C 84 % 1006,8 hPa 11,7 l/m 1,4 km/h SO 11,8 C 14,4 C 0,8 km/h
09.06.2011 15,6 C 70 % 1014,3 hPa 5,0 l/m 0,4 km/h S-SO 9,6 C 15,6 C 0,2 km/h
10.06.2011 16,4 C 66 % 1014,1 hPa 0,0 l/m 2,4 km/h SO 9,2 C 16,2 C 1,4 km/h
11.06.2011 17,0 C 68 % 1015,7 hPa 0,4 l/m 1,0 km/h N-NO 10,5 C 16,9 C 0,5 km/h
12.06.2011 18,4 C 61 % 1016,5 hPa 0,0 l/m 1,1 km/h W-NW 9,5 C 18,4 C 0,6 km/h
13.06.2011 18,1 C 70 % 1016,1 hPa 0,7 l/m 0,9 km/h SO 12,2 C 18,1 C 0,5 km/h
14.06.2011 20,9 C 67 % 1016,8 hPa 0,0 l/m 2,6 km/h SO 13,8 C 20,7 C 1,5 km/h
15.06.2011 22,5 C 65 % 1016,2 hPa 0,4 l/m 0,7 km/h N-NO 14,8 C 22,5 C 0,4 km/h
16.06.2011 19,9 C 71 % 1013,9 hPa 15,3 l/m 6,2 km/h SO 13,5 C 19,1 C 3,4 km/h
17.06.2011 20,4 C 70 % 1011,8 hPa 11,0 l/m 2,8 km/h N-NO 14,1 C 20,1 C 1,6 km/h
18.06.2011 16,8 C 68 % 1008,9 hPa 7,8 l/m 14,4 km/h W-SW 10,6 C 13,8 C 8,0 km/h
19.06.2011 14,0 C 74 % 1014,4 hPa 4,3 l/m 4,9 km/h W-SW 9,2 C 13,0 C 2,7 km/h
20.06.2011 16,8 C 74 % 1015,8 hPa 0,4 l/m 5,7 km/h SO 11,8 C 15,9 C 3,2 km/h
21.06.2011 23,2 C 63 % 1014,6 hPa 0,0 l/m 6,9 km/h SO 15,1 C 22,7 C 3,8 km/h
22.06.2011 20,9 C 73 % 1013,5 hPa 9,3 l/m 3,6 km/h SO 15,5 C 20,4 C 2,0 km/h
23.06.2011 17,6 C 71 % 1017,1 hPa 0,0 l/m 8,7 km/h SO 11,8 C 16,3 C 4,8 km/h
24.06.2011 17,8 C 62 % 1021,2 hPa 0,0 l/m 2,9 km/h O-SO 9,7 C 17,4 C 1,6 km/h
25.06.2011 17,8 C 61 % 1024,1 hPa 0,0 l/m 2,3 km/h O-SO 9,5 C 17,6 C 1,3 km/h
26.06.2011 23,6 C 61 % 1021,3 hPa 0,0 l/m 2,7 km/h W-NW 14,5 C 23,5 C 1,5 km/h
27.06.2011 26,4 C 60 % 1016,5 hPa 0,0 l/m 1,4 km/h NO 16,8 C 26,4 C 0,8 km/h
28.06.2011 28,4 C 59 % 1013,4 hPa 0,0 l/m 1,0 km/h N-NO 18,4 C 28,4 C 0,6 km/h
29.06.2011 20,9 C 77 % 1015,0 hPa 4,3 l/m 0,9 km/h N-NO 16,6 C 20,8 C 0,5 km/h
30.06.2011 19,6 C 62 % 1019,7 hPa 1,4 l/m 1,2 km/h N-NO 11,1 C 19,6 C 0,6 km/h
01.07.2011 15,9 C 65 % 1019,8 hPa 0,0 l/m 1,6 km/h O-NO 8,6 C 15,8 C 0,9 km/h
02.07.2011 16,5 C 58 % 1015,5 hPa 0,0 l/m 1,7 km/h N-NO 6,9 C 16,3 C 1,0 km/h
03.07.2011 18,3 C 55 % 1013,0 hPa 0,0 l/m 1,9 km/h O-SO 7,6 C 18,1 C 1,1 km/h
04.07.2011 20,6 C 57 % 1012,3 hPa 0,0 l/m 0,8 km/h O-NO 10,3 C 20,6 C 0,4 km/h
05.07.2011 23,3 C 56 % 1011,6 hPa 0,0 l/m 1,8 km/h NO 12,6 C 23,3 C 1,0 km/h
06.07.2011 22,3 C 59 % 1009,6 hPa 0,0 l/m 6,0 km/h O-NO 13,0 C 22,0 C 3,4 km/h
07.07.2011 20,2 C 70 % 1009,5 hPa 5,7 l/m 0,5 km/h W 13,9 C 20,2 C 0,3 km/h
08.07.2011 19,9 C 66 % 1012,2 hPa 4,3 l/m 4,4 km/h W-NW 12,7 C 19,4 C 2,5 km/h
09.07.2011 22,0 C 64 % 1014,8 hPa 0,0 l/m 5,5 km/h SO 14,0 C 21,8 C 3,0 km/h
10.07.2011 20,0 C 75 % 1016,3 hPa 1,8 l/m 1,8 km/h N-NO 15,1 C 19,9 C 1,0 km/h
11.07.2011 22,6 C 65 % 1016,5 hPa 0,0 l/m 3,9 km/h NO 15,0 C 22,4 C 2,2 km/h
12.07.2011 23,8 C 68 % 1010,1 hPa 8,2 l/m 2,4 km/h SO 16,8 C 23,4 C 1,3 km/h
13.07.2011 19,4 C 80 % 1008,1 hPa 12,1 l/m 6,5 km/h S-SO 15,8 C 18,2 C 3,6 km/h
14.07.2011 16,9 C 68 % 1016,6 hPa 0,4 l/m 4,9 km/h W-SW 10,3 C 16,1 C 2,7 km/h
15.07.2011 17,2 C 64 % 1018,6 hPa 0,0 l/m 2,0 km/h SO 9,1 C 17,0 C 1,1 km/h
16.07.2011 20,0 C 58 % 1010,6 hPa 0,0 l/m 7,3 km/h S-SO 10,2 C 19,5 C 4,1 km/h
17.07.2011 16,8 C 73 % 1003,8 hPa 5,3 l/m 7,6 km/h S 11,7 C 15,3 C 4,2 km/h
18.07.2011 17,4 C 64 % 1005,7 hPa 0,0 l/m 17,7 km/h W-SW 10,1 C 14,0 C 9,8 km/h
19.07.2011 15,2 C 75 % 1003,7 hPa 1,8 l/m 4,2 km/h SO 10,6 C 14,3 C 2,3 km/h
20.07.2011 14,6 C 82 % 1008,4 hPa 1,4 l/m 10,3 km/h W-SW 11,5 C 12,0 C 5,7 km/h
21.07.2011 16,7 C 76 % 1008,5 hPa 1,1 l/m 2,7 km/h N-NO 12,3 C 16,4 C 1,5 km/h
22.07.2011 17,3 C 80 % 1009,2 hPa 8,5 l/m 3,5 km/h SO 13,6 C 17,0 C 1,9 km/h
23.07.2011 17,2 C 68 % 1010,0 hPa 5,3 l/m 4,5 km/h W 10,6 C 16,6 C 2,5 km/h
24.07.2011 14,0 C 74 % 1011,5 hPa 0,4 l/m 6,5 km/h W-SW 9,3 C 12,7 C 3,6 km/h
25.07.2011 18,7 C 61 % 1008,9 hPa 0,0 l/m 4,3 km/h W-SW 10,0 C 18,2 C 2,4 km/h
26.07.2011 16,5 C 75 % 1010,3 hPa 9,3 l/m 2,8 km/h SO 11,8 C 16,1 C 1,5 km/h
27.07.2011 19,4 C 72 % 1014,6 hPa 0,4 l/m 1,5 km/h W 13,7 C 19,3 C 0,8 km/h
28.07.2011 20,7 C 67 % 1016,2 hPa 0,0 l/m 1,7 km/h NO 13,7 C 20,7 C 0,9 km/h
29.07.2011 20,4 C 67 % 1016,2 hPa 0,0 l/m 1,0 km/h SO 13,6 C 20,4 C 0,5 km/h
30.07.2011 19,3 C 67 % 1015,3 hPa 0,0 l/m 2,5 km/h N-NO 12,4 C 19,1 C 1,4 km/h
31.07.2011 17,3 C 67 % 1014,5 hPa 0,0 l/m 3,3 km/h N-NO 10,6 C 17,0 C 1,8 km/h
01.08.2011 20,2 C 66 % 1013,3 hPa 0,0 l/m 2,8 km/h NO 12,9 C 20,0 C 1,6 km/h
02.08.2011 23,5 C 60 % 1013,5 hPa 0,0 l/m 1,0 km/h NO 13,8 C 23,5 C 0,5 km/h
03.08.2011 21,4 C 68 % 1014,4 hPa 0,0 l/m 4,2 km/h W-SW 14,9 C 21,1 C 2,3 km/h
04.08.2011 24,2 C 67 % 1014,8 hPa 0,0 l/m 1,3 km/h O-NO 16,9 C 24,2 C 0,7 km/h
05.08.2011 21,7 C 75 % 1012,8 hPa 5,0 l/m 2,0 km/h NO 16,8 C 21,5 C 1,1 km/h
06.08.2011 22,2 C 72 % 1006,5 hPa 0,4 l/m 1,8 km/h O-SO 16,7 C 22,0 C 1,0 km/h
07.08.2011 18,2 C 80 % 1007,0 hPa 8,5 l/m 4,6 km/h S 14,6 C 17,6 C 2,6 km/h
08.08.2011 15,9 C 75 % 1010,5 hPa 1,8 l/m 10,5 km/h W-SW 11,3 C 14,3 C 5,8 km/h
09.08.2011 15,4 C 77 % 1019,1 hPa 3,9 l/m 9,7 km/h SW 11,2 C 13,3 C 5,4 km/h
10.08.2011 17,8 C 62 % 1023,7 hPa 0,0 l/m 0,6 km/h O-NO 9,4 C 17,8 C 0,4 km/h
11.08.2011 19,0 C 60 % 1016,7 hPa 0,0 l/m 1,2 km/h SO 9,7 C 18,9 C 0,7 km/h
12.08.2011 18,8 C 67 % 1012,4 hPa 0,0 l/m 10,4 km/h SO 12,0 C 17,6 C 5,8 km/h
13.08.2011 21,6 C 70 % 1010,5 hPa 0,0 l/m 4,2 km/h W-SW 15,5 C 21,2 C 2,3 km/h
14.08.2011 20,5 C 74 % 1008,0 hPa 0,0 l/m 6,5 km/h SO 15,3 C 20,0 C 3,6 km/h
15.08.2011 20,8 C 74 % 1013,3 hPa 0,0 l/m 1,7 km/h N-NO 15,8 C 20,7 C 0,9 km/h
16.08.2011 21,4 C 68 % 1016,8 hPa 0,0 l/m 0,8 km/h NO 14,4 C 21,4 C 0,4 km/h
17.08.2011 22,6 C 68 % 1014,3 hPa 0,0 l/m 0,6 km/h W-SW 15,7 C 22,6 C 0,3 km/h
18.08.2011 25,6 C 65 % 1012,4 hPa 0,0 l/m 1,6 km/h SO 17,6 C 25,6 C 0,9 km/h
19.08.2011 24,9 C 68 % 1016,0 hPa 0,0 l/m 9,3 km/h W 18,3 C 24,3 C 5,2 km/h
20.08.2011 24,5 C 69 % 1018,7 hPa 0,0 l/m 1,6 km/h W 17,7 C 24,5 C 0,9 km/h
21.08.2011 25,9 C 67 % 1016,3 hPa 0,0 l/m 0,4 km/h SO 18,6 C 25,9 C 0,2 km/h
22.08.2011 28,4 C 64 % 1014,4 hPa 0,0 l/m 1,1 km/h O-NO 19,6 C 28,4 C 0,6 km/h
23.08.2011 27,6 C 60 % 1012,9 hPa 0,0 l/m 2,3 km/h NO 17,8 C 27,6 C 1,3 km/h
24.08.2011 24,5 C 66 % 1014,2 hPa 0,0 l/m 0,5 km/h SO 17,3 C 24,5 C 0,3 km/h
25.08.2011 23,3 C 70 % 1012,7 hPa 0,0 l/m 0,5 km/h W-NW 16,9 C 23,3 C 0,3 km/h
26.08.2011 22,3 C 71 % 1007,2 hPa 0,0 l/m 3,8 km/h W-SW 16,3 C 21,8 C 2,1 km/h
27.08.2011 14,9 C 75 % 1015,6 hPa 0,0 l/m 14,3 km/h W-SW 10,5 C 11,6 C 7,9 km/h
28.08.2011 18,7 C 62 % 1018,2 hPa 0,0 l/m 4,3 km/h NO 10,2 C 18,4 C 2,4 km/h
29.08.2011 17,8 C 64 % 1016,2 hPa 0,0 l/m 1,9 km/h N-NO 10,0 C 17,7 C 1,0 km/h
30.08.2011 17,9 C 62 % 1014,4 hPa 0,0 l/m 1,1 km/h N-NO 9,0 C 17,8 C 0,6 km/h
31.08.2011 18,1 C 64 % 1011,9 hPa 0,0 l/m 1,0 km/h W-NW 10,2 C 18,0 C 0,5 km/h
01.09.2011 20,5 C 68 % 1012,1 hPa 0,0 l/m 0,2 km/h NO 13,6 C 20,5 C 0,1 km/h
02.09.2011 21,8 C 72 % 1012,1 hPa 0,0 l/m 0,2 km/h O-NO 16,0 C 21,8 C 0,1 km/h
03.09.2011 24,2 C 68 % 1010,9 hPa 0,0 l/m 4,0 km/h SO 17,1 C 23,8 C 2,2 km/h
04.09.2011 20,4 C 79 % 1010,7 hPa 0,0 l/m 2,8 km/h SO 16,6 C 20,1 C 1,6 km/h
05.09.2011 18,1 C 72 % 1016,6 hPa 0,0 l/m 6,3 km/h SW 12,7 C 17,2 C 3,5 km/h
06.09.2011 17,1 C 65 % 1020,7 hPa 0,0 l/m 8,2 km/h SO 9,7 C 16,2 C 4,6 km/h
07.09.2011 17,7 C 71 % 1015,3 hPa 0,0 l/m 18,5 km/h W-SW 12,4 C 14,0 C 10,3 km/h
08.09.2011 17,1 C 70 % 1013,7 hPa 1,1 l/m 14,2 km/h W-SW 11,4 C 14,5 C 7,9 km/h
09.09.2011 21,1 C 73 % 1012,7 hPa 0,0 l/m 8,0 km/h SO 16,1 C 20,0 C 4,4 km/h
10.09.2011 23,9 C 65 % 1010,7 hPa 0,0 l/m 1,9 km/h O-NO 16,0 C 23,8 C 1,0 km/h
11.09.2011 22,1 C 68 % 1011,3 hPa 3,6 l/m 5,0 km/h S-SO 15,1 C 21,7 C 2,8 km/h
12.09.2011 20,1 C 65 % 1015,4 hPa 0,0 l/m 11,9 km/h W 12,7 C 18,5 C 6,6 km/h
13.09.2011 21,3 C 69 % 1014,6 hPa 0,0 l/m 16,3 km/h W-SW 15,3 C 19,1 C 9,0 km/h
14.09.2011 19,6 C 66 % 1017,4 hPa 1,8 l/m 2,7 km/h N-NO 12,2 C 19,3 C 1,5 km/h
15.09.2011 16,6 C 67 % 1018,1 hPa 0,0 l/m 2,5 km/h SO 9,6 C 16,4 C 1,4 km/h
16.09.2011 17,1 C 71 % 1015,2 hPa 0,0 l/m 0,6 km/h NO 11,3 C 17,1 C 0,3 km/h
17.09.2011 19,7 C 75 % 1011,7 hPa 1,4 l/m 6,9 km/h W-SW 15,0 C 18,8 C 3,8 km/h
18.09.2011 13,6 C 78 % 1007,3 hPa 3,9 l/m 9,0 km/h SW 9,8 C 11,7 C 5,0 km/h
19.09.2011 12,5 C 79 % 1012,2 hPa 1,4 l/m 1,3 km/h SO 8,8 C 12,5 C 0,8 km/h
20.09.2011 15,3 C 67 % 1021,8 hPa 0,4 l/m 2,9 km/h SO 8,5 C 14,8 C 1,6 km/h
21.09.2011 15,8 C 66 % 1019,3 hPa 0,0 l/m 0,3 km/h NO 8,3 C 15,7 C 0,2 km/h
22.09.2011 15,8 C 69 % 1018,8 hPa 0,0 l/m 0,2 km/h NO 9,5 C 15,8 C 0,1 km/h
23.09.2011 16,9 C 69 % 1016,5 hPa 0,0 l/m 1,7 km/h O-NO 10,7 C 16,8 C 0,9 km/h
24.09.2011 17,2 C 67 % 1014,0 hPa 0,0 l/m 0,0 km/h NO 10,2 C 17,2 C 0,0 km/h
25.09.2011 19,3 C 66 % 1017,4 hPa 0,0 l/m 0,8 km/h O-NO 11,7 C 19,1 C 0,4 km/h
26.09.2011 19,3 C 65 % 1021,9 hPa 0,0 l/m 0,1 km/h O-NO 11,5 C 19,3 C 0,0 km/h
27.09.2011 19,6 C 67 % 1025,4 hPa 0,0 l/m 1,2 km/h NO 12,4 C 19,6 C 0,7 km/h
28.09.2011 18,4 C 67 % 1024,9 hPa 0,0 l/m 1,5 km/h N-NO 11,3 C 18,3 C 0,8 km/h
29.09.2011 18,5 C 69 % 1024,0 hPa 0,0 l/m 0,3 km/h NO 12,1 C 18,5 C 0,2 km/h
30.09.2011 18,2 C 68 % 1023,6 hPa 0,0 l/m 0,5 km/h NO 11,4 C 18,2 C 0,3 km/h
01.10.2011 18,6 C 68 % 1023,5 hPa 0,0 l/m 0,0 km/h NO 11,7 C 18,6 C 0,0 km/h
02.10.2011 18,7 C 68 % 1022,9 hPa 0,0 l/m 1,3 km/h NO 11,8 C 18,5 C 0,7 km/h
03.10.2011 18,8 C 68 % 1021,6 hPa 0,0 l/m 0,9 km/h O-NO 12,1 C 18,8 C 0,5 km/h
04.10.2011 18,4 C 65 % 1021,7 hPa 0,0 l/m 4,4 km/h NO 10,9 C 18,2 C 2,4 km/h
05.10.2011 17,3 C 72 % 1021,5 hPa 0,0 l/m 1,8 km/h SO 11,8 C 17,1 C 1,0 km/h
06.10.2011 15,7 C 73 % 1014,8 hPa 9,3 l/m 9,6 km/h O-NO 10,5 C 14,1 C 5,3 km/h
07.10.2011 10,0 C 79 % 1014,3 hPa 2,1 l/m 6,6 km/h W 6,4 C 8,2 C 3,7 km/h
08.10.2011 8,6 C 82 % 1016,7 hPa 9,3 l/m 3,5 km/h W 5,6 C 8,0 C 2,0 km/h
09.10.2011 11,8 C 71 % 1020,2 hPa 2,5 l/m 0,9 km/h S 6,3 C 11,7 C 0,5 km/h
10.10.2011 14,7 C 80 % 1020,7 hPa 6,8 l/m 7,8 km/h NO 11,3 C 13,2 C 4,3 km/h
11.10.2011 15,7 C 77 % 1022,2 hPa 0,0 l/m 13,8 km/h W-SW 11,5 C 12,7 C 7,7 km/h
12.10.2011 14,1 C 80 % 1021,1 hPa 0,0 l/m 11,1 km/h W-SW 10,7 C 11,6 C 6,2 km/h
13.10.2011 12,4 C 83 % 1023,8 hPa 2,1 l/m 1,2 km/h SO 9,6 C 12,4 C 0,7 km/h
14.10.2011 11,5 C 65 % 1026,0 hPa 0,0 l/m 1,4 km/h NO 4,2 C 11,4 C 0,8 km/h
15.10.2011 7,2 C 73 % 1024,9 hPa 0,0 l/m 0,5 km/h N 2,3 C 7,2 C 0,3 km/h
16.10.2011 9,1 C 73 % 1023,1 hPa 0,0 l/m 0,0 km/h NO 4,1 C 9,1 C 0,0 km/h
17.10.2011 10,6 C 75 % 1021,4 hPa 0,0 l/m 0,0 km/h O-SO 5,9 C 10,6 C 0,0 km/h
18.10.2011 13,7 C 65 % 1014,4 hPa 0,0 l/m 9,8 km/h O-NO 6,8 C 12,0 C 5,4 km/h
19.10.2011 6,6 C 83 % 1016,4 hPa 12,1 l/m 0,8 km/h S-SO 3,9 C 6,6 C 0,4 km/h
20.10.2011 7,6 C 75 % 1023,7 hPa 0,0 l/m 0,7 km/h O 3,1 C 7,6 C 0,4 km/h
21.10.2011 2,7 C 84 % 1025,0 hPa 0,4 l/m 0,2 km/h W-NW 0,3 C 2,7 C 0,1 km/h
22.10.2011 4,6 C 78 % 1021,0 hPa 0,0 l/m 0,4 km/h SO 0,9 C 4,6 C 0,2 km/h
23.10.2011 4,9 C 78 % 1015,9 hPa 0,0 l/m 0,4 km/h NO 1,2 C 4,9 C 0,2 km/h
24.10.2011 4,3 C 83 % 1007,2 hPa 0,0 l/m 0,2 km/h W 1,6 C 4,3 C 0,1 km/h
25.10.2011 7,6 C 82 % 1002,8 hPa 0,0 l/m 0,0 km/h O-NO 4,7 C 7,6 C 0,0 km/h
26.10.2011 12,5 C 69 % 1012,0 hPa 0,0 l/m 5,2 km/h SO 6,4 C 11,3 C 2,9 km/h
27.10.2011 7,6 C 77 % 1013,7 hPa 0,0 l/m 0,1 km/h NW 3,6 C 7,6 C 0,0 km/h
28.10.2011 9,6 C 76 % 1021,3 hPa 0,0 l/m 0,0 km/h O-NO 5,3 C 9,6 C 0,0 km/h
29.10.2011 11,0 C 75 % 1022,9 hPa 0,0 l/m 0,1 km/h NW 6,6 C 11,0 C 0,0 km/h
30.10.2011 12,0 C 80 % 1021,1 hPa 0,0 l/m 0,2 km/h O 8,5 C 12,0 C 0,1 km/h
31.10.2011 8,9 C 81 % 1017,4 hPa 0,0 l/m 0,2 km/h O-NO 5,9 C 8,9 C 0,1 km/h
01.11.2011 10,9 C 76 % 1015,0 hPa 0,4 l/m 0,0 km/h NO 6,6 C 10,9 C 0,0 km/h
02.11.2011 12,5 C 75 % 1012,1 hPa 0,0 l/m 0,8 km/h SO 8,0 C 12,4 C 0,4 km/h
03.11.2011 9,6 C 80 % 1004,8 hPa 0,0 l/m 0,8 km/h NO 6,2 C 9,4 C 0,4 km/h
04.11.2011 10,5 C 82 % 1002,8 hPa 0,0 l/m 0,1 km/h W 7,6 C 10,5 C 0,1 km/h
05.11.2011 10,0 C 79 % 1003,9 hPa 0,0 l/m 0,4 km/h W-SW 6,4 C 10,0 C 0,2 km/h
06.11.2011 8,0 C 80 % 1008,1 hPa 0,0 l/m 0,3 km/h NO 4,7 C 8,0 C 0,2 km/h
07.11.2011 8,6 C 77 % 1012,9 hPa 0,4 l/m 0,0 km/h W-NW 4,7 C 8,6 C 0,0 km/h
08.11.2011 8,0 C 79 % 1015,3 hPa 0,4 l/m 0,3 km/h N-NW 4,6 C 8,0 C 0,2 km/h
09.11.2011 7,7 C 82 % 1019,2 hPa 0,0 l/m 0,1 km/h SO 4,8 C 7,7 C 0,0 km/h
10.11.2011 6,4 C 82 % 1019,7 hPa 0,0 l/m 0,5 km/h S-SO 3,6 C 6,4 C 0,3 km/h
11.11.2011 5,8 C 84 % 1020,7 hPa 0,0 l/m 0,6 km/h O-NO 3,2 C 5,7 C 0,3 km/h
12.11.2011 6,4 C 79 % 1027,6 hPa 0,0 l/m 0,0 km/h NO 2,9 C 6,4 C 0,0 km/h
13.11.2011 5,3 C 82 % 1029,1 hPa 0,4 l/m 0,0 km/h W-NW 2,6 C 5,3 C 0,0 km/h
14.11.2011 4,1 C 86 % 1024,1 hPa 0,0 l/m 2,2 km/h S-SO 1,9 C 3,5 C 1,3 km/h
15.11.2011 2,7 C 87 % 1018,9 hPa 0,0 l/m 0,7 km/h SO 0,7 C 2,7 C 0,4 km/h
16.11.2011 2,3 C 83 % 1019,2 hPa 0,0 l/m 0,5 km/h NW -0,3 C 2,3 C 0,3 km/h
17.11.2011 4,3 C 82 % 1022,1 hPa 0,0 l/m 0,0 km/h NO 1,3 C 4,3 C 0,0 km/h
18.11.2011 8,2 C 79 % 1021,4 hPa 0,0 l/m 0,0 km/h O-NO 4,7 C 8,2 C 0,0 km/h
19.11.2011 5,3 C 79 % 1019,1 hPa 0,0 l/m 0,1 km/h NO 1,7 C 5,3 C 0,1 km/h
20.11.2011 6,1 C 79 % 1018,8 hPa 0,0 l/m 0,0 km/h O-NO 2,6 C 6,1 C 0,0 km/h
21.11.2011 6,0 C 77 % 1016,0 hPa 0,0 l/m 0,0 km/h NO 2,0 C 6,0 C 0,0 km/h
22.11.2011 2,3 C 85 % 1017,2 hPa 0,4 l/m 0,5 km/h W-NW 0,0 C 2,3 C 0,3 km/h
23.11.2011 2,5 C 81 % 1024,5 hPa 0,0 l/m 0,5 km/h W-NW -0,4 C 2,4 C 0,3 km/h
24.11.2011 2,4 C 85 % 1030,3 hPa 0,0 l/m 0,2 km/h S 0,2 C 2,4 C 0,1 km/h
25.11.2011 2,5 C 84 % 1028,2 hPa 0,0 l/m 0,0 km/h SO -0,1 C 2,5 C 0,0 km/h
26.11.2011 4,8 C 82 % 1030,4 hPa 0,0 l/m 0,0 km/h S-SO 1,8 C 4,8 C 0,0 km/h
27.11.2011 3,9 C 82 % 1025,9 hPa 0,0 l/m 3,5 km/h SO 1,0 C 2,9 C 2,0 km/h
28.11.2011 4,4 C 83 % 1024,7 hPa 0,0 l/m 0,6 km/h O-NO 1,7 C 4,3 C 0,3 km/h
29.11.2011 4,4 C 81 % 1019,9 hPa 0,4 l/m 1,3 km/h N-NO 1,3 C 4,1 C 0,7 km/h
30.11.2011 8,8 C 82 % 1024,4 hPa 0,0 l/m 4,7 km/h NO 5,9 C 7,4 C 2,6 km/h
01.12.2011 8,7 C 72 % 1018,3 hPa 0,0 l/m 3,1 km/h NO 3,6 C 8,1 C 1,7 km/h
02.12.2011 8,4 C 80 % 1013,0 hPa 3,6 l/m 5,6 km/h SO 5,2 C 7,0 C 3,1 km/h
03.12.2011 7,2 C 81 % 1013,9 hPa 0,0 l/m 23,3 km/h W-SW 4,0 C -0,3 C 13,0 km/h
04.12.2011 10,9 C 83 % 1005,9 hPa 0,7 l/m 35,0 km/h W-SW 8,1 C 1,4 C 19,4 km/h
05.12.2011 6,7 C 81 % 1007,0 hPa 4,3 l/m 16,2 km/h W 3,6 C 1,6 C 9,0 km/h
06.12.2011 5,6 C 83 % 1010,8 hPa 0,7 l/m 22,8 km/h W-SW 2,9 C -3,1 C 12,7 km/h
07.12.2011 7,5 C 81 % 1011,2 hPa 4,6 l/m 23,1 km/h W-SW 4,5 C -0,2 C 12,8 km/h
08.12.2011 6,9 C 75 % 1021,7 hPa 0,0 l/m 13,1 km/h S-SW 2,7 C 2,9 C 7,3 km/h
09.12.2011 9,7 C 77 % 1013,2 hPa 8,2 l/m 28,4 km/h W-SW 5,8 C 2,3 C 15,8 km/h
10.12.2011 5,5 C 84 % 1014,2 hPa 6,4 l/m 0,0 km/h SO 3,0 C 5,5 C 0,0 km/h
11.12.2011 5,0 C 84 % 1014,7 hPa 0,0 l/m 0,0 km/h SO 2,4 C 5,0 C 0,0 km/h
12.12.2011 6,6 C 84 % 1010,8 hPa 1,8 l/m 7,9 km/h W 4,0 C 4,0 C 4,4 km/h
13.12.2011 7,4 C 74 % 1008,3 hPa 0,4 l/m 17,8 km/h W-SW 2,8 C 2,2 C 9,9 km/h
14.12.2011 8,6 C 77 % 1006,8 hPa 3,6 l/m 23,2 km/h W 4,6 C 1,3 C 12,9 km/h
15.12.2011 6,3 C 77 % 1009,5 hPa 0,4 l/m 19,7 km/h W 2,6 C -0,7 C 10,9 km/h
16.12.2011 7,5 C 79 % 990,4 hPa 3,6 l/m 25,0 km/h W 4,1 C 0,1 C 13,9 km/h
17.12.2011 1,9 C 86 % 1004,1 hPa 1,8 l/m 7,4 km/h W -0,3 C -1,1 C 4,1 km/h
18.12.2011 1,8 C 86 % 1011,0 hPa 1,1 l/m 6,4 km/h W -0,3 C -0,2 C 3,6 km/h
19.12.2011 0,6 C 84 % 1017,6 hPa 0,4 l/m 3,2 km/h W-NW -1,8 C -0,6 C 1,8 km/h
20.12.2011 0,8 C 83 % 1011,5 hPa 5,7 l/m 5,8 km/h O-NO -1,7 C -1,4 C 3,2 km/h
21.12.2011 3,0 C 85 % 1018,6 hPa 2,5 l/m 6,6 km/h W 0,7 C 1,4 C 3,7 km/h
22.12.2011 4,5 C 78 % 1022,8 hPa 13,9 l/m 0,0 km/h S-SO 0,9 C 4,5 C 0,0 km/h
23.12.2011 6,8 C 79 % 1022,2 hPa 0,7 l/m 5,3 km/h S-SO 3,4 C 5,1 C 2,9 km/h
24.12.2011 4,1 C 85 % 1025,5 hPa 2,8 l/m 6,9 km/h SO 1,8 C 2,1 C 3,9 km/h
25.12.2011 2,4 C 84 % 1034,5 hPa 0,0 l/m 1,0 km/h SO 0,0 C 2,1 C 0,6 km/h
26.12.2011 4,4 C 82 % 1036,2 hPa 0,0 l/m 0,1 km/h SO 1,5 C 4,4 C 0,1 km/h
27.12.2011 2,4 C 84 % 1034,3 hPa 0,0 l/m 0,0 km/h O-SO -0,0 C 2,4 C 0,0 km/h
28.12.2011 4,4 C 78 % 1026,9 hPa 0,0 l/m 3,5 km/h NO 0,9 C 3,3 C 1,9 km/h
29.12.2011 4,9 C 81 % 1023,9 hPa 0,0 l/m 16,0 km/h W-SW 1,9 C -1,0 C 8,9 km/h
30.12.2011 3,7 C 84 % 1015,7 hPa 1,4 l/m 11,2 km/h W 1,2 C -0,2 C 6,2 km/h
31.12.2011 6,3 C 85 % 1014,2 hPa 5,7 l/m 5,3 km/h W-SW 3,9 C 4,5 C 2,9 km/h
Min-Datum 23.01.11 07.03.11 16.12.11 135 Tage 01.01.11 - 23.01.11 25.01.11 01.01.11
Min-Zeit 08:30 16:30 13:30 - 00:30 - 08:30 20:30 00:30
Minimum -8,8 C 17 % 978,6 hPa - 0,0 km/h - -10,6 C -14,3 C 0,0 km/h
Max-Datum 22.08.11 01.01.11 26.12.11 04.04.11 28.02.11 - 22.08.11 22.08.11 28.02.11
Max-Zeit 16:30 11:30 10:30 06:30 23:30 - 13:30 16:30 23:30
Maximum 44,4 C 90 % 1037,4 hPa 16,0 l/m 64,2 km/h
NO
- 23,2 C 44,4 C 35,6 km/h
NO
Durchschnitt 12,4 C 72 % 1016,4 hPa #428,2 l/m 3,7 km/h SO 6,9 C 11,7 C 2,1 km/h

Durchschnitt Minimum Temp.6,2 C
Durchschnitt Maximum Temp.21,0 C
www.sexauwetter.de